Estación Meteorológica Peña el Pijo (Robertgarden) [ 11/16/19 03:10:02 CET ]

Fecha Hora Presion(HPa) Temp (°C) Humedad % Rocio (°C) Viento ( m/s) Direccion Lluvia 1Hora(mm) Lluvia 24H(mm) LLuvia Total(mm)
2019-Jun-27 01:09:17 1013.200 - - - - WSW     330.48
2019-Jun-27 02:09:39 1013.200 - - - - WSW     330.48
2019-Jun-27 03:10:05 1012.400 - - - - WSW     330.48
2019-Jun-27 04:09:46 1011.900 - - - - WSW     330.48
2019-Jun-27 05:09:23 1011.800 - - - - WSW     330.48
2019-Jun-27 06:09:22 1011.900 - - - - WSW     330.48
2019-Jun-27 07:08:55 1012.100 - - - - WSW     330.48
2019-Jun-27 08:08:43 1012.600 - - - - WSW     330.48
2019-Jun-27 09:09:09 1012.600 - - - - WSW     330.48
2019-Jun-27 10:09:10 1012.900 - - - - WSW     330.48
2019-Jun-27 11:09:35 1013.100 - - - - WSW     330.48
2019-Jun-27 12:09:22 1012.800 - - - - WSW     330.48
2019-Jun-27 13:09:06 1012.800 - - - - WSW     330.48
2019-Jun-27 14:09:03 1012.700 - - - - WSW     330.48
2019-Jun-27 15:09:23 1012.300 - - - - WSW     330.48
2019-Jun-27 16:08:38 1012.200 - - - - WSW     330.48
2019-Jun-27 17:09:00 1011.900 - - - - WSW     330.48
2019-Jun-27 18:08:53 1011.900 - - - - WSW     330.48
2019-Jun-27 19:09:19 1011.900 - - - - WSW     330.48
2019-Jun-27 20:09:27 1012.400 - - - - WSW     330.48
2019-Jun-27 21:09:47 1012.800 - - - - WSW     330.48
2019-Jun-27 22:09:23 1013.100 - - - - WSW     330.48
2019-Jun-27 23:09:11 1013.700 - - - - WSW     330.48

Temperatura Máxima:    Temperatura Mínima:
Presión Máxima:1013.700 Hpa    Presión Mínima:1011.800 Hpa


Volver